Year,Month,Day,Hour,Minute,Value (Times are PST for temperature in C)
2021,04,25,00,00,1.40
2021,04,25,00,01,1.30
2021,04,25,00,02,1.30
2021,04,25,00,03,1.30
2021,04,25,00,04,1.30
2021,04,25,00,05,1.20
2021,04,25,00,06,1.20
2021,04,25,00,07,1.20
2021,04,25,00,08,1.20
2021,04,25,00,09,1.10
2021,04,25,00,10,1.10
2021,04,25,00,11,1.10
2021,04,25,00,12,1.00
2021,04,25,00,13,1.00
2021,04,25,00,14,0.90
2021,04,25,00,15,0.90
2021,04,25,00,16,0.90
2021,04,25,00,17,0.90
2021,04,25,00,18,0.90
2021,04,25,00,19,0.80
2021,04,25,00,20,0.80
2021,04,25,00,21,0.80
2021,04,25,00,22,0.80
2021,04,25,00,23,0.70
2021,04,25,00,24,0.70
2021,04,25,00,25,0.70
2021,04,25,00,26,0.70
2021,04,25,00,27,0.70
2021,04,25,00,28,0.60
2021,04,25,00,29,0.60
2021,04,25,00,30,0.60
2021,04,25,00,31,0.50
2021,04,25,00,32,0.50
2021,04,25,00,33,0.40
2021,04,25,00,34,0.40
2021,04,25,00,35,0.40
2021,04,25,00,36,0.40
2021,04,25,00,37,0.40
2021,04,25,00,38,0.30
2021,04,25,00,39,0.30
2021,04,25,00,40,0.30
2021,04,25,00,41,0.30
2021,04,25,00,42,0.30
2021,04,25,00,43,0.30
2021,04,25,00,44,0.30
2021,04,25,00,45,0.20
2021,04,25,00,46,0.20
2021,04,25,00,47,0.20
2021,04,25,00,48,0.20
2021,04,25,00,49,0.20
2021,04,25,00,50,0.20
2021,04,25,00,51,0.20
2021,04,25,00,52,0.20
2021,04,25,00,53,0.10
2021,04,25,00,54,0.10
2021,04,25,00,55,0.10
2021,04,25,00,56,0.00
2021,04,25,00,57,0.00
2021,04,25,00,58,0.00
2021,04,25,00,59,0.00
2021,04,25,01,00,0.00
2021,04,25,01,01,-0.10
2021,04,25,01,02,-0.10
2021,04,25,01,03,-0.10
2021,04,25,01,04,-0.10
2021,04,25,01,05,-0.10
2021,04,25,01,06,-0.10
2021,04,25,01,07,-0.10
2021,04,25,01,08,-0.20
2021,04,25,01,09,-0.20
2021,04,25,01,10,-0.20
2021,04,25,01,11,-0.20
2021,04,25,01,12,-0.20
2021,04,25,01,13,-0.20
2021,04,25,01,14,-0.20
2021,04,25,01,15,-0.20
2021,04,25,01,16,-0.20
2021,04,25,01,17,-0.20
2021,04,25,01,18,-0.20
2021,04,25,01,19,-0.30
2021,04,25,01,20,-0.30
2021,04,25,01,21,-0.30
2021,04,25,01,22,-0.30
2021,04,25,01,23,-0.30
2021,04,25,01,24,-0.30
2021,04,25,01,25,-0.30
2021,04,25,01,26,-0.40
2021,04,25,01,27,-0.40
2021,04,25,01,28,-0.40
2021,04,25,01,29,-0.40
2021,04,25,01,30,-0.40
2021,04,25,01,31,-0.40
2021,04,25,01,32,-0.40
2021,04,25,01,33,-0.50
2021,04,25,01,34,-0.50
2021,04,25,01,35,-0.50
2021,04,25,01,36,-0.60
2021,04,25,01,37,-0.60
2021,04,25,01,38,-0.60
2021,04,25,01,39,-0.60
2021,04,25,01,40,-0.60
2021,04,25,01,41,-0.60
2021,04,25,01,42,-0.70
2021,04,25,01,43,-0.70
2021,04,25,01,44,-0.70
2021,04,25,01,45,-0.70
2021,04,25,01,46,-0.70
2021,04,25,01,47,-0.70
2021,04,25,01,48,-0.70
2021,04,25,01,49,-0.70
2021,04,25,01,50,-0.70
2021,04,25,01,51,-0.80
2021,04,25,01,52,-0.80
2021,04,25,01,53,-0.80
2021,04,25,01,54,-0.80
2021,04,25,01,55,-0.80
2021,04,25,01,56,-0.80
2021,04,25,01,57,-0.90
2021,04,25,01,58,-0.90
2021,04,25,01,59,-0.90
2021,04,25,02,00,-0.90
2021,04,25,02,01,-0.90
2021,04,25,02,02,-1.00
2021,04,25,02,03,-1.00
2021,04,25,02,04,-1.00
2021,04,25,02,05,-1.10
2021,04,25,02,06,-1.10
2021,04,25,02,07,-1.10
2021,04,25,02,08,-1.10
2021,04,25,02,09,-1.10
2021,04,25,02,10,-1.20
2021,04,25,02,11,-1.20
2021,04,25,02,12,-1.20
2021,04,25,02,13,-1.20
2021,04,25,02,14,-1.20
2021,04,25,02,15,-1.30
2021,04,25,02,16,-1.30
2021,04,25,02,17,-1.30
2021,04,25,02,18,-1.30
2021,04,25,02,19,-1.30
2021,04,25,02,20,-1.40
2021,04,25,02,21,-1.40
2021,04,25,02,22,-1.40
2021,04,25,02,23,-1.40
2021,04,25,02,24,-1.50
2021,04,25,02,25,-1.50
2021,04,25,02,26,-1.50
2021,04,25,02,27,-1.60
2021,04,25,02,28,-1.60
2021,04,25,02,29,-1.60
2021,04,25,02,30,-1.60
2021,04,25,02,31,-1.60
2021,04,25,02,32,-1.70
2021,04,25,02,33,-1.70
2021,04,25,02,34,-1.70
2021,04,25,02,35,-1.70
2021,04,25,02,36,-1.70
2021,04,25,02,37,-1.70
2021,04,25,02,38,-1.80
2021,04,25,02,39,-1.80
2021,04,25,02,40,-1.80
2021,04,25,02,41,-1.80
2021,04,25,02,42,-1.80
2021,04,25,02,43,-1.80
2021,04,25,02,44,-1.80
2021,04,25,02,45,-1.80
2021,04,25,02,46,-1.80
2021,04,25,02,47,-1.80
2021,04,25,02,48,-1.80
2021,04,25,02,49,-1.80
2021,04,25,02,50,-1.80
2021,04,25,02,51,-1.80
2021,04,25,02,52,-1.80
2021,04,25,02,53,-1.80
2021,04,25,02,54,-1.80
2021,04,25,02,55,-1.80
2021,04,25,02,56,-1.80
2021,04,25,02,57,-1.80
2021,04,25,02,58,-1.80
2021,04,25,02,59,-1.80
2021,04,25,03,00,-1.90
2021,04,25,03,01,-1.90
2021,04,25,03,02,-1.90
2021,04,25,03,03,-1.90
2021,04,25,03,04,-1.90
2021,04,25,03,05,-1.90
2021,04,25,03,06,-1.90
2021,04,25,03,07,-1.90
2021,04,25,03,08,-1.90
2021,04,25,03,09,-1.90
2021,04,25,03,10,-2.00
2021,04,25,03,11,-2.00
2021,04,25,03,12,-2.00
2021,04,25,03,13,-2.00
2021,04,25,03,14,-2.00
2021,04,25,03,15,-2.00
2021,04,25,03,16,-2.00
2021,04,25,03,17,-2.00
2021,04,25,03,18,-2.10
2021,04,25,03,19,-2.10
2021,04,25,03,20,-2.10
2021,04,25,03,21,-2.10
2021,04,25,03,22,-2.10
2021,04,25,03,23,-2.10
2021,04,25,03,24,-2.10
2021,04,25,03,25,-2.10
2021,04,25,03,26,-2.20
2021,04,25,03,27,-2.20
2021,04,25,03,28,-2.20
2021,04,25,03,29,-2.20
2021,04,25,03,30,-2.20
2021,04,25,03,31,-2.30
2021,04,25,03,32,-2.30
2021,04,25,03,33,-2.30
2021,04,25,03,34,-2.30
2021,04,25,03,35,-2.40
2021,04,25,03,36,-2.40
2021,04,25,03,37,-2.40
2021,04,25,03,38,-2.40
2021,04,25,03,39,-2.40
2021,04,25,03,40,-2.40
2021,04,25,03,41,-2.40
2021,04,25,03,42,-2.50
2021,04,25,03,43,-2.50
2021,04,25,03,44,-2.50
2021,04,25,03,45,-2.50
2021,04,25,03,46,-2.50
2021,04,25,03,47,-2.50
2021,04,25,03,48,-2.60
2021,04,25,03,49,-2.60
2021,04,25,03,50,-2.60
2021,04,25,03,51,-2.60
2021,04,25,03,52,-2.60
2021,04,25,03,53,-2.60
2021,04,25,03,54,-2.70
2021,04,25,03,55,-2.70
2021,04,25,03,56,-2.70
2021,04,25,03,57,-2.70
2021,04,25,03,58,-2.70
2021,04,25,03,59,-2.70
2021,04,25,04,00,-2.70
2021,04,25,04,01,-2.70
2021,04,25,04,02,-2.80
2021,04,25,04,03,-2.80
2021,04,25,04,04,-2.80
2021,04,25,04,05,-2.80
2021,04,25,04,06,-2.80
2021,04,25,04,07,-2.80
2021,04,25,04,08,-2.80
2021,04,25,04,09,-2.90
2021,04,25,04,10,-2.90
2021,04,25,04,11,-2.90
2021,04,25,04,12,-2.90
2021,04,25,04,13,-2.90
2021,04,25,04,14,-2.90
2021,04,25,04,15,-2.90
2021,04,25,04,16,-2.90
2021,04,25,04,17,-2.90
2021,04,25,04,18,-2.90
2021,04,25,04,19,-2.90
2021,04,25,04,20,-2.90
2021,04,25,04,21,-2.90
2021,04,25,04,22,-2.90
2021,04,25,04,23,-3.00
2021,04,25,04,24,-3.00
2021,04,25,04,25,-3.00
2021,04,25,04,26,-3.00
2021,04,25,04,27,-3.10
2021,04,25,04,28,-3.10
2021,04,25,04,29,-3.10
2021,04,25,04,30,-3.10
2021,04,25,04,31,-3.10
2021,04,25,04,32,-3.10
2021,04,25,04,33,-3.10
2021,04,25,04,34,-3.10
2021,04,25,04,35,-3.10
2021,04,25,04,36,-3.10
2021,04,25,04,37,-3.20
2021,04,25,04,38,-3.20
2021,04,25,04,39,-3.20
2021,04,25,04,40,-3.10
2021,04,25,04,41,-3.10
2021,04,25,04,42,-3.10
2021,04,25,04,43,-3.10
2021,04,25,04,44,-3.10
2021,04,25,04,45,-3.10
2021,04,25,04,46,-3.10
2021,04,25,04,47,-3.10
2021,04,25,04,48,-3.20
2021,04,25,04,49,-3.20
2021,04,25,04,50,-3.20
2021,04,25,04,51,-3.20
2021,04,25,04,52,-3.20
2021,04,25,04,53,-3.20
2021,04,25,04,54,-3.20
2021,04,25,04,55,-3.20
2021,04,25,04,56,-3.20
2021,04,25,04,57,-3.30
2021,04,25,04,58,-3.30
2021,04,25,04,59,-3.30
2021,04,25,05,00,-3.30
2021,04,25,05,01,-3.30
2021,04,25,05,02,-3.30
2021,04,25,05,03,-3.30
2021,04,25,05,04,-3.40
2021,04,25,05,05,-3.40
2021,04,25,05,06,-3.40
2021,04,25,05,07,-3.40
2021,04,25,05,08,-3.40
2021,04,25,05,09,-3.40
2021,04,25,05,10,-3.40
2021,04,25,05,11,-3.40
2021,04,25,05,12,-3.40
2021,04,25,05,13,-3.50
2021,04,25,05,14,-3.50
2021,04,25,05,15,-3.50
2021,04,25,05,16,-3.50
2021,04,25,05,17,-3.50
2021,04,25,05,18,-3.50
2021,04,25,05,19,-3.50
2021,04,25,05,20,-3.50
2021,04,25,05,21,-3.50
2021,04,25,05,22,-3.60
2021,04,25,05,23,-3.60
2021,04,25,05,24,-3.60
2021,04,25,05,25,-3.60
2021,04,25,05,26,-3.60
2021,04,25,05,27,-3.60
2021,04,25,05,28,-3.60
2021,04,25,05,29,-3.60
2021,04,25,05,30,-3.60
2021,04,25,05,31,-3.60
2021,04,25,05,32,-3.60
2021,04,25,05,33,-3.70
2021,04,25,05,34,-3.70
2021,04,25,05,35,-3.70
2021,04,25,05,36,-3.70
2021,04,25,05,37,-3.70
2021,04,25,05,38,-3.70
2021,04,25,05,39,-3.70
2021,04,25,05,40,-3.70
2021,04,25,05,41,-3.70
2021,04,25,05,42,-3.70
2021,04,25,05,43,-3.70
2021,04,25,05,44,-3.70
2021,04,25,05,45,-3.70
2021,04,25,05,46,-3.70
2021,04,25,05,47,-3.80
2021,04,25,05,48,-3.80
2021,04,25,05,49,-3.80
2021,04,25,05,50,-3.80
2021,04,25,05,51,-3.80
2021,04,25,05,52,-3.80
2021,04,25,05,53,-3.80
2021,04,25,05,54,-3.80
2021,04,25,05,55,-3.90
2021,04,25,05,56,-3.90
2021,04,25,05,57,-3.90
2021,04,25,05,58,-3.90
2021,04,25,05,59,-3.90
2021,04,25,06,00,-3.90
2021,04,25,06,01,-3.90
2021,04,25,06,02,-3.90
2021,04,25,06,03,-3.90
2021,04,25,06,04,-3.90
2021,04,25,06,05,-3.90
2021,04,25,06,06,-4.00
2021,04,25,06,07,-4.00
2021,04,25,06,08,-4.00
2021,04,25,06,09,-4.00
2021,04,25,06,10,-4.00
2021,04,25,06,11,-4.10
2021,04,25,06,12,-4.10
2021,04,25,06,13,-4.10
2021,04,25,06,14,-4.10
2021,04,25,06,15,-4.10
2021,04,25,06,16,-4.10
2021,04,25,06,17,-4.10
2021,04,25,06,18,-4.10
2021,04,25,06,19,-4.10
2021,04,25,06,20,-4.10
2021,04,25,06,21,-4.10
2021,04,25,06,22,-4.20
2021,04,25,06,23,-4.20
2021,04,25,06,24,-4.20
2021,04,25,06,25,-4.20
2021,04,25,06,26,-4.20
2021,04,25,06,27,-4.20
2021,04,25,06,28,-4.20
2021,04,25,06,29,-4.10
2021,04,25,06,30,-4.10
2021,04,25,06,31,-4.10
2021,04,25,06,32,-4.10
2021,04,25,06,33,-4.10
2021,04,25,06,34,-4.10
2021,04,25,06,35,-4.10
2021,04,25,06,36,-4.10
2021,04,25,06,37,-4.10
2021,04,25,06,38,-4.10
2021,04,25,06,39,-4.10
2021,04,25,06,40,-4.10
2021,04,25,06,41,-4.10
2021,04,25,06,42,-4.10
2021,04,25,06,43,-4.10
2021,04,25,06,44,-4.10
2021,04,25,06,45,-4.10
2021,04,25,06,46,-4.10
2021,04,25,06,47,-4.10
2021,04,25,06,48,-4.10
2021,04,25,06,49,-4.20
2021,04,25,06,50,-4.20
2021,04,25,06,51,-4.20
2021,04,25,06,52,-4.20
2021,04,25,06,53,-4.20
2021,04,25,06,54,-4.20
2021,04,25,06,55,-4.20
2021,04,25,06,56,-4.20
2021,04,25,06,57,-4.20
2021,04,25,06,58,-4.20
2021,04,25,06,59,-4.20
2021,04,25,07,00,-4.20
2021,04,25,07,01,-4.20
2021,04,25,07,02,-4.20
2021,04,25,07,03,-4.20
2021,04,25,07,04,-4.20
2021,04,25,07,05,-4.20
2021,04,25,07,06,-4.20
2021,04,25,07,07,-4.20
2021,04,25,07,08,-4.20
2021,04,25,07,09,-4.20
2021,04,25,07,10,-4.20
2021,04,25,07,11,-4.20
2021,04,25,07,12,-4.20
2021,04,25,07,13,-4.20
2021,04,25,07,14,-4.20
2021,04,25,07,15,-4.20
2021,04,25,07,16,-4.20
2021,04,25,07,17,-4.20
2021,04,25,07,18,-4.20
2021,04,25,07,19,-4.20
2021,04,25,07,20,-4.20
2021,04,25,07,21,-4.20
2021,04,25,07,22,-4.20
2021,04,25,07,23,-4.20
2021,04,25,07,24,-4.20
2021,04,25,07,25,-4.20
2021,04,25,07,26,-4.20
2021,04,25,07,27,-4.20
2021,04,25,07,28,-4.20
2021,04,25,07,29,-4.20
2021,04,25,07,30,-4.20
2021,04,25,07,31,-4.30
2021,04,25,07,32,-4.30
2021,04,25,07,33,-4.20
2021,04,25,07,34,-4.30
2021,04,25,07,35,-4.30
2021,04,25,07,36,-4.30
2021,04,25,07,37,-4.30
2021,04,25,07,38,-4.30
2021,04,25,07,39,-4.30
2021,04,25,07,40,-4.30
2021,04,25,07,41,-4.30
2021,04,25,07,42,-4.30
2021,04,25,07,43,-4.30
2021,04,25,07,44,-4.30
2021,04,25,07,45,-4.30
2021,04,25,07,46,-4.30
2021,04,25,07,47,-4.30
2021,04,25,07,48,-4.30
2021,04,25,07,49,-4.30
2021,04,25,07,50,-4.30
2021,04,25,07,51,-4.30
2021,04,25,07,52,-4.30
2021,04,25,07,53,-4.20
2021,04,25,07,54,-4.20
2021,04,25,07,55,-4.20
2021,04,25,07,56,-4.20
2021,04,25,07,57,-4.20
2021,04,25,07,58,-4.10
2021,04,25,07,59,-4.10
2021,04,25,08,00,-4.10
2021,04,25,08,01,-4.10
2021,04,25,08,02,-4.10
2021,04,25,08,03,-4.10
2021,04,25,08,04,-4.00
2021,04,25,08,05,-4.00
2021,04,25,08,06,-4.00
2021,04,25,08,07,-4.00
2021,04,25,08,08,-4.00
2021,04,25,08,09,-4.00
2021,04,25,08,10,-4.10
2021,04,25,08,11,-4.10
2021,04,25,08,12,-4.00
2021,04,25,08,13,-4.10
2021,04,25,08,14,-4.10
2021,04,25,08,15,-4.10
2021,04,25,08,16,-4.10
2021,04,25,08,17,-4.10
2021,04,25,08,18,-4.10
2021,04,25,08,19,-4.10
2021,04,25,08,20,-4.10
2021,04,25,08,21,-4.00
2021,04,25,08,22,-4.10
2021,04,25,08,23,-4.00
2021,04,25,08,24,-4.00
2021,04,25,08,25,-4.00
2021,04,25,08,26,-4.00
2021,04,25,08,27,-4.00
2021,04,25,08,28,-4.00
2021,04,25,08,29,-3.90
2021,04,25,08,30,-3.90
2021,04,25,08,31,-3.90
2021,04,25,08,32,-3.90
2021,04,25,08,33,-3.90
2021,04,25,08,34,-3.90
2021,04,25,08,35,-3.90
2021,04,25,08,36,-3.90
2021,04,25,08,37,-3.90
2021,04,25,08,38,-3.90
2021,04,25,08,39,-3.90
2021,04,25,08,40,-3.80
2021,04,25,08,41,-3.80
2021,04,25,08,42,-3.80
2021,04,25,08,43,-3.80
2021,04,25,08,44,-3.80
2021,04,25,08,45,-3.80
2021,04,25,08,46,-3.80
2021,04,25,08,47,-3.80
2021,04,25,08,48,-3.80
2021,04,25,08,49,-3.80
2021,04,25,08,50,-3.80
2021,04,25,08,51,-3.80
2021,04,25,08,52,-3.80
2021,04,25,08,53,-3.80
2021,04,25,08,54,-3.80
2021,04,25,08,55,-3.70
2021,04,25,08,56,-3.70
2021,04,25,08,57,-3.70
2021,04,25,08,58,-3.70
2021,04,25,08,59,-3.70
2021,04,25,09,00,-3.60
2021,04,25,09,01,-3.60
2021,04,25,09,02,-3.60
2021,04,25,09,03,-3.50
2021,04,25,09,04,-3.50
2021,04,25,09,05,-3.40
2021,04,25,09,06,-3.40
2021,04,25,09,07,-3.30
2021,04,25,09,08,-3.20
2021,04,25,09,09,-3.10
2021,04,25,09,10,-3.00
2021,04,25,09,11,-2.90
2021,04,25,09,12,-2.80
2021,04,25,09,13,-2.60
2021,04,25,09,14,-2.50
2021,04,25,09,15,-2.40
2021,04,25,09,16,-2.30
2021,04,25,09,17,-2.20
2021,04,25,09,18,-2.20
2021,04,25,09,19,-2.10
2021,04,25,09,20,-2.00
2021,04,25,09,21,-1.90
2021,04,25,09,22,-1.80
2021,04,25,09,23,-1.70
2021,04,25,09,24,-1.60
2021,04,25,09,25,-1.60
2021,04,25,09,26,-1.50
2021,04,25,09,27,-1.40
2021,04,25,09,28,-1.30
2021,04,25,09,29,-1.20
2021,04,25,09,30,-1.10
2021,04,25,09,31,-1.10
2021,04,25,09,32,-1.00
2021,04,25,09,33,-0.90
2021,04,25,09,34,-0.80
2021,04,25,09,35,-0.70
2021,04,25,09,36,-0.70
2021,04,25,09,37,-0.60
2021,04,25,09,38,-0.50
2021,04,25,09,39,-0.40
2021,04,25,09,40,-0.30
2021,04,25,09,41,-0.30
2021,04,25,09,42,-0.20
2021,04,25,09,43,-0.20
2021,04,25,09,44,-0.10
2021,04,25,09,45,-0.10
2021,04,25,09,46,0.00
2021,04,25,09,47,0.00
2021,04,25,09,48,0.10
2021,04,25,09,49,0.10
2021,04,25,09,50,0.20
2021,04,25,09,51,0.20
2021,04,25,09,52,0.30
2021,04,25,09,53,0.30
2021,04,25,09,54,0.40
2021,04,25,09,55,0.40
2021,04,25,09,56,0.50
2021,04,25,09,57,0.50
2021,04,25,09,58,0.60
2021,04,25,09,59,0.60
2021,04,25,10,00,0.70
2021,04,25,10,01,0.70
2021,04,25,10,02,0.80
2021,04,25,10,03,0.80
2021,04,25,10,04,0.80
2021,04,25,10,05,0.90
2021,04,25,10,06,0.90
2021,04,25,10,07,1.00
2021,04,25,10,08,1.00
2021,04,25,10,09,1.10
2021,04,25,10,10,1.10
2021,04,25,10,11,1.10
2021,04,25,10,12,1.20
2021,04,25,10,13,1.20
2021,04,25,10,14,1.30
2021,04,25,10,15,1.30
2021,04,25,10,16,1.40
2021,04,25,10,17,1.50
2021,04,25,10,18,1.50
2021,04,25,10,19,1.60
2021,04,25,10,20,1.70
2021,04,25,10,21,1.70
2021,04,25,10,22,1.80
2021,04,25,10,23,1.80
2021,04,25,10,24,1.90
2021,04,25,10,25,2.00
2021,04,25,10,26,2.00
2021,04,25,10,27,2.10
2021,04,25,10,28,2.10
2021,04,25,10,29,2.20
2021,04,25,10,30,2.20
2021,04,25,10,31,2.30
2021,04,25,10,32,2.30
2021,04,25,10,33,2.40
2021,04,25,10,34,2.50
2021,04,25,10,35,2.50
2021,04,25,10,36,2.60
2021,04,25,10,37,2.70
2021,04,25,10,38,2.70
2021,04,25,10,39,2.70
2021,04,25,10,40,2.80
2021,04,25,10,41,2.80
2021,04,25,10,42,2.90
2021,04,25,10,43,3.00
2021,04,25,10,44,3.00
2021,04,25,10,45,3.10
2021,04,25,10,46,3.20
2021,04,25,10,47,3.30
2021,04,25,10,48,3.30
2021,04,25,10,49,3.30
2021,04,25,10,50,3.30
2021,04,25,10,51,3.30
2021,04,25,10,52,3.40
2021,04,25,10,53,3.40
2021,04,25,10,54,3.40
2021,04,25,10,55,3.40
2021,04,25,10,56,3.40
2021,04,25,10,57,3.50
2021,04,25,10,58,3.50
2021,04,25,10,59,3.50
2021,04,25,11,00,3.50
2021,04,25,11,01,3.50
2021,04,25,11,02,3.50
2021,04,25,11,03,3.60
2021,04,25,11,04,3.60
2021,04,25,11,05,3.70
2021,04,25,11,06,3.70
2021,04,25,11,07,3.80
2021,04,25,11,08,3.80
2021,04,25,11,09,3.80
2021,04,25,11,10,3.90
2021,04,25,11,11,3.90
2021,04,25,11,12,4.00
2021,04,25,11,13,4.00
2021,04,25,11,14,4.10
2021,04,25,11,15,4.10
2021,04,25,11,16,4.10
2021,04,25,11,17,4.20
2021,04,25,11,18,4.20
2021,04,25,11,19,4.20
2021,04,25,11,20,4.30
2021,04,25,11,21,4.30
2021,04,25,11,22,4.40
2021,04,25,11,23,4.50
2021,04,25,11,24,4.60
2021,04,25,11,25,4.60
2021,04,25,11,26,4.70
2021,04,25,11,27,4.70
2021,04,25,11,28,4.80
2021,04,25,11,29,4.80
2021,04,25,11,30,4.80
2021,04,25,11,31,4.80
2021,04,25,11,32,4.90
2021,04,25,11,33,4.90
2021,04,25,11,34,4.90
2021,04,25,11,35,4.90
2021,04,25,11,36,5.00
2021,04,25,11,37,5.00
2021,04,25,11,38,5.10
2021,04,25,11,39,5.10
2021,04,25,11,40,5.20
2021,04,25,11,41,5.20
2021,04,25,11,42,5.30
2021,04,25,11,43,5.30
2021,04,25,11,44,5.40
2021,04,25,11,45,5.40
2021,04,25,11,46,5.50
2021,04,25,11,47,5.50
2021,04,25,11,48,5.60
2021,04,25,11,49,5.60
2021,04,25,11,50,5.70
2021,04,25,11,51,5.70
2021,04,25,11,52,5.80
2021,04,25,11,53,5.80
2021,04,25,11,54,5.90
2021,04,25,11,55,5.90
2021,04,25,11,56,5.90
2021,04,25,11,57,6.00
2021,04,25,11,58,6.00
2021,04,25,11,59,6.10
2021,04,25,12,00,6.10
2021,04,25,12,01,6.20
2021,04,25,12,02,6.30
2021,04,25,12,03,6.30
2021,04,25,12,04,6.40
2021,04,25,12,05,6.40
2021,04,25,12,06,6.50
2021,04,25,12,07,6.60
2021,04,25,12,08,6.70
2021,04,25,12,09,6.70
2021,04,25,12,10,6.80
2021,04,25,12,11,6.90
2021,04,25,12,12,7.00
2021,04,25,12,13,7.00
2021,04,25,12,14,7.10
2021,04,25,12,15,7.20
2021,04,25,12,16,7.20
2021,04,25,12,17,7.30
2021,04,25,12,18,7.30
2021,04,25,12,19,7.40
2021,04,25,12,20,7.40
2021,04,25,12,21,7.40
2021,04,25,12,22,7.50
2021,04,25,12,23,7.50
2021,04,25,12,24,7.60
2021,04,25,12,25,7.60
2021,04,25,12,26,7.70
2021,04,25,12,27,7.70
2021,04,25,12,28,7.80
2021,04,25,12,29,7.80
2021,04,25,12,30,7.90
2021,04,25,12,31,7.90
2021,04,25,12,32,8.00
2021,04,25,12,33,8.00
2021,04,25,12,34,8.10
2021,04,25,12,35,8.10
2021,04,25,12,36,8.20
2021,04,25,12,37,8.20
2021,04,25,12,38,8.20
2021,04,25,12,39,8.20
2021,04,25,12,40,8.20
2021,04,25,12,41,8.20
2021,04,25,12,42,8.20
2021,04,25,12,43,8.20
2021,04,25,12,44,8.20
2021,04,25,12,45,8.20
2021,04,25,12,46,8.20
2021,04,25,12,47,8.30
2021,04,25,12,48,8.30
2021,04,25,12,49,8.30
2021,04,25,12,50,8.30
2021,04,25,12,51,8.40
2021,04,25,12,52,8.40
2021,04,25,12,53,8.50
2021,04,25,12,54,8.60
2021,04,25,12,55,8.60
2021,04,25,12,56,8.70
2021,04,25,12,57,8.80
2021,04,25,12,58,8.90
2021,04,25,12,59,8.90
2021,04,25,13,00,9.00
2021,04,25,13,01,9.00
2021,04,25,13,02,9.10
2021,04,25,13,03,9.20
2021,04,25,13,04,9.20
2021,04,25,13,05,9.30
2021,04,25,13,06,9.30
2021,04,25,13,07,9.30
2021,04,25,13,08,9.40
2021,04,25,13,09,9.40
2021,04,25,13,10,9.40
2021,04,25,13,11,9.50
2021,04,25,13,12,9.50
2021,04,25,13,13,9.60
2021,04,25,13,14,9.60
2021,04,25,13,15,9.60
2021,04,25,13,16,9.70
2021,04,25,13,17,9.80
2021,04,25,13,18,9.80
2021,04,25,13,19,9.90
2021,04,25,13,20,10.00
2021,04,25,13,21,10.00
2021,04,25,13,22,10.10
2021,04,25,13,23,10.20
2021,04,25,13,24,10.20
2021,04,25,13,25,10.30
2021,04,25,13,26,10.40
2021,04,25,13,27,10.40
2021,04,25,13,28,10.50
2021,04,25,13,29,10.50
2021,04,25,13,30,10.60
2021,04,25,13,31,10.70
2021,04,25,13,32,10.70
2021,04,25,13,33,10.70
2021,04,25,13,34,10.70
2021,04,25,13,35,10.80
2021,04,25,13,36,10.80
2021,04,25,13,37,10.90
2021,04,25,13,38,11.00
2021,04,25,13,39,11.10
2021,04,25,13,40,11.10
2021,04,25,13,41,11.20
2021,04,25,13,42,11.20
2021,04,25,13,43,11.20
2021,04,25,13,44,11.30
2021,04,25,13,45,11.30
2021,04,25,13,46,11.40
2021,04,25,13,47,11.40
2021,04,25,13,48,11.50
2021,04,25,13,49,11.50
2021,04,25,13,50,11.60
2021,04,25,13,51,11.60
2021,04,25,13,52,11.70
2021,04,25,13,53,11.70
2021,04,25,13,54,11.80
2021,04,25,13,55,11.80
2021,04,25,13,56,11.80
2021,04,25,13,57,11.80
2021,04,25,13,58,11.90
2021,04,25,13,59,11.90
2021,04,25,14,00,11.90
2021,04,25,14,01,12.00
2021,04,25,14,02,12.00
2021,04,25,14,03,12.10
2021,04,25,14,04,12.10
2021,04,25,14,05,12.10
2021,04,25,14,06,12.20
2021,04,25,14,07,12.20
2021,04,25,14,08,12.30
2021,04,25,14,09,12.30
2021,04,25,14,10,12.40
2021,04,25,14,11,12.50
2021,04,25,14,12,12.50
2021,04,25,14,13,12.60
2021,04,25,14,14,12.60
2021,04,25,14,15,12.70
2021,04,25,14,16,12.80
2021,04,25,14,17,12.80
2021,04,25,14,18,12.90
2021,04,25,14,19,13.00
2021,04,25,14,20,13.10
2021,04,25,14,21,13.20
2021,04,25,14,22,13.20
2021,04,25,14,23,13.30
2021,04,25,14,24,13.40
2021,04,25,14,25,13.40
2021,04,25,14,26,13.50
2021,04,25,14,27,13.60
2021,04,25,14,28,13.60
2021,04,25,14,29,13.70
2021,04,25,14,30,13.70
2021,04,25,14,31,13.80
2021,04,25,14,32,13.80
2021,04,25,14,33,13.80
2021,04,25,14,34,13.90
2021,04,25,14,35,14.00
2021,04,25,14,36,14.10
2021,04,25,14,37,14.10
2021,04,25,14,38,14.20
2021,04,25,14,39,14.20
2021,04,25,14,40,14.30
2021,04,25,14,41,14.40
2021,04,25,14,42,14.50
2021,04,25,14,43,14.50
2021,04,25,14,44,14.60
2021,04,25,14,45,14.70
2021,04,25,14,46,14.70
2021,04,25,14,47,14.80
2021,04,25,14,48,14.90
2021,04,25,14,49,14.90
2021,04,25,14,50,15.00
2021,04,25,14,51,15.10
2021,04,25,14,52,15.10
2021,04,25,14,53,15.10
2021,04,25,14,54,15.10
2021,04,25,14,55,15.10
2021,04,25,14,56,15.10
2021,04,25,14,57,15.10
2021,04,25,14,58,15.20
2021,04,25,14,59,15.20
2021,04,25,15,00,15.20
2021,04,25,15,01,15.30
2021,04,25,15,02,15.30
2021,04,25,15,03,15.30
2021,04,25,15,04,15.30
2021,04,25,15,05,15.40
2021,04,25,15,06,15.40
2021,04,25,15,07,15.40
2021,04,25,15,08,15.40
2021,04,25,15,09,15.50
2021,04,25,15,10,15.50
2021,04,25,15,11,15.50
2021,04,25,15,12,15.50
2021,04,25,15,13,15.50
2021,04,25,15,14,15.50
2021,04,25,15,15,15.50
2021,04,25,15,16,15.50
2021,04,25,15,17,15.50
2021,04,25,15,18,15.50
2021,04,25,15,19,15.50
2021,04,25,15,20,15.50
2021,04,25,15,21,15.50
2021,04,25,15,22,15.60
2021,04,25,15,23,15.60
2021,04,25,15,24,15.60
2021,04,25,15,25,15.60
2021,04,25,15,26,15.70
2021,04,25,15,27,15.70
2021,04,25,15,28,15.70
2021,04,25,15,29,15.70
2021,04,25,15,30,15.70
2021,04,25,15,31,15.70
2021,04,25,15,32,15.60
2021,04,25,15,33,15.60
2021,04,25,15,34,15.60
2021,04,25,15,35,15.60
2021,04,25,15,36,15.60
2021,04,25,15,37,15.60
2021,04,25,15,38,15.60
2021,04,25,15,39,15.60
2021,04,25,15,40,15.60
2021,04,25,15,41,15.60
2021,04,25,15,42,15.60
2021,04,25,15,43,15.60
2021,04,25,15,44,15.60
2021,04,25,15,45,15.60
2021,04,25,15,46,15.60
2021,04,25,15,47,15.60
2021,04,25,15,48,15.60
2021,04,25,15,49,15.60
2021,04,25,15,50,15.60
2021,04,25,15,51,15.60
2021,04,25,15,52,15.60
2021,04,25,15,53,15.60
2021,04,25,15,54,15.60
2021,04,25,15,55,15.60
2021,04,25,15,56,15.50
2021,04,25,15,57,15.50
2021,04,25,15,58,15.50
2021,04,25,15,59,15.50
2021,04,25,16,00,15.50
2021,04,25,16,01,15.50
2021,04,25,16,02,15.50
2021,04,25,16,03,15.50
2021,04,25,16,04,15.40
2021,04,25,16,05,15.40
2021,04,25,16,06,15.40
2021,04,25,16,07,15.40
2021,04,25,16,08,15.40
2021,04,25,16,09,15.50
2021,04,25,16,10,15.50
2021,04,25,16,11,15.50
2021,04,25,16,12,15.50
2021,04,25,16,13,15.60
2021,04,25,16,14,15.60
2021,04,25,16,15,15.60
2021,04,25,16,16,15.60
2021,04,25,16,17,15.60
2021,04,25,16,18,15.60
2021,04,25,16,19,15.60
2021,04,25,16,20,15.70
2021,04,25,16,21,15.70
2021,04,25,16,22,15.80
2021,04,25,16,23,15.80
2021,04,25,16,24,15.70
2021,04,25,16,25,15.70
2021,04,25,16,26,15.70
2021,04,25,16,27,15.70
2021,04,25,16,28,15.70
2021,04,25,16,29,15.60
2021,04,25,16,30,15.60
2021,04,25,16,31,15.60
2021,04,25,16,32,15.60
2021,04,25,16,33,15.60
2021,04,25,16,34,15.60
2021,04,25,16,35,15.60
2021,04,25,16,36,15.70
2021,04,25,16,37,15.70
2021,04,25,16,38,15.70
2021,04,25,16,39,15.80
2021,04,25,16,40,15.80
2021,04,25,16,41,15.80
2021,04,25,16,42,15.80
2021,04,25,16,43,15.80
2021,04,25,16,44,15.80
2021,04,25,16,45,15.80
2021,04,25,16,46,15.80
2021,04,25,16,47,15.80
2021,04,25,16,48,15.80
2021,04,25,16,49,15.80
2021,04,25,16,50,15.80
2021,04,25,16,51,15.80
2021,04,25,16,52,15.80
2021,04,25,16,53,15.80
2021,04,25,16,54,15.70
2021,04,25,16,55,15.70
2021,04,25,16,56,15.70
2021,04,25,16,57,15.70
2021,04,25,16,58,15.70
2021,04,25,16,59,15.70
2021,04,25,17,00,15.70
2021,04,25,17,01,15.70
2021,04,25,17,02,15.70
2021,04,25,17,03,15.70
2021,04,25,17,04,15.70
2021,04,25,17,05,15.70
2021,04,25,17,06,15.60
2021,04,25,17,07,15.60
2021,04,25,17,08,15.60
2021,04,25,17,09,15.70
2021,04,25,17,10,15.70
2021,04,25,17,11,15.70
2021,04,25,17,12,15.70
2021,04,25,17,13,15.70
2021,04,25,17,14,15.70
2021,04,25,17,15,15.80
2021,04,25,17,16,15.80
2021,04,25,17,17,15.80
2021,04,25,17,18,15.80
2021,04,25,17,19,15.80
2021,04,25,17,20,15.80
2021,04,25,17,21,15.80
2021,04,25,17,22,15.80
2021,04,25,17,23,15.80
2021,04,25,17,24,15.80
2021,04,25,17,25,15.80
2021,04,25,17,26,15.80
2021,04,25,17,27,15.80
2021,04,25,17,28,15.80
2021,04,25,17,29,15.80
2021,04,25,17,30,15.80
2021,04,25,17,31,15.80